| time (UTC) | temp F | wind direction | speed knots | gust knots | rain 1hr in | rain 24hr in | rain mn in | humidity % | barometer mb |
| 20260504001005 | 54 | 152 | 0.9 | 2.6 | 0.00 | 0.00 | 0.00 | 50 | 1011.6 |
| 20260504000504 | 54 | 226 | 1.7 | 4.3 | 0.00 | 0.00 | 0.00 | 50 | 1011.6 |
| 20260504000003 | 54 | 180 | 0.9 | 2.6 | 0.00 | 0.00 | 0.00 | 50 | 1011.6 |
| 20260503235503 | 54 | 202 | 0.9 | 2.6 | 0.00 | 0.00 | 0.00 | 49 | 1011.6 |
| 20260503234505 | 55 | 275 | 1.7 | 6.1 | 0.00 | 0.00 | 0.00 | 49 | 1011.7 |
| 20260503233503 | 55 | 266 | 2.6 | 7.0 | 0.00 | 0.00 | 0.00 | 48 | 1011.6 |
| 20260503233003 | 55 | 274 | 1.7 | 6.1 | 0.00 | 0.00 | 0.00 | 49 | 1011.6 |
| 20260503232504 | 55 | 256 | 1.7 | 2.6 | 0.00 | 0.00 | 0.00 | 47 | 1011.6 |
| 20260503232004 | 55 | 294 | 1.7 | 7.0 | 0.00 | 0.00 | 0.00 | 47 | 1011.6 |
| 20260503231505 | 55 | 275 | 1.7 | 4.3 | 0.00 | 0.00 | 0.00 | 47 | 1011.6 |
| 20260503231004 | 55 | 210 | 2.6 | 10.4 | 0.00 | 0.00 | 0.00 | 47 | 1011.5 |
| 20260503230504 | 55 | 168 | 3.5 | 6.1 | 0.00 | 0.00 | 0.00 | 47 | 1011.6 |
| 20260503225503 | 55 | 218 | 1.7 | 6.1 | 0.00 | 0.00 | 0.00 | 46 | 1011.7 |
| 20260503224504 | 55 | 266 | 2.6 | 4.3 | 0.00 | 0.00 | 0.00 | 44 | 1011.6 |
| 20260503224004 | 55 | 270 | 1.7 | 5.2 | 0.00 | 0.00 | 0.00 | 44 | 1011.6 |
| 20260503223504 | 55 | 272 | 2.6 | 4.3 | 0.00 | 0.00 | 0.00 | 43 | 1011.7 |
| 20260503223003 | 55 | 254 | 1.7 | 2.6 | 0.00 | 0.00 | 0.00 | 44 | 1011.6 |
| 20260503222503 | 55 | 290 | 2.6 | 5.2 | 0.00 | 0.00 | 0.00 | 43 | 1011.6 |
| 20260503222004 | 55 | 300 | 2.6 | 6.1 | 0.00 | 0.00 | 0.00 | 42 | 1011.6 |
| 20260503221503 | 56 | 255 | 3.5 | 7.0 | 0.00 | 0.00 | 0.00 | 42 | 1011.6 |
| 20260503220003 | 56 | 297 | 4.3 | 8.7 | 0.00 | 0.00 | 0.00 | 42 | 1011.6 |
| 20260503215504 | 56 | 326 | 2.6 | 8.7 | 0.00 | 0.00 | 0.00 | 41 | 1011.5 |
| 20260503215003 | 56 | 278 | 3.5 | 8.7 | 0.00 | 0.00 | 0.00 | 42 | 1011.6 |
| 20260503214503 | 56 | 227 | 2.6 | 10.4 | 0.00 | 0.00 | 0.00 | 41 | 1011.5 |
| 20260503213504 | 57 | 273 | 5.2 | 12.2 | 0.00 | 0.00 | 0.00 | 40 | 1011.4 |
| 20260503213003 | 57 | 288 | 3.5 | 11.3 | 0.00 | 0.00 | 0.00 | 40 | 1011.4 |
| 20260503212504 | 57 | 304 | 3.5 | 8.7 | 0.00 | 0.00 | 0.00 | 40 | 1011.2 |
| 20260503212003 | 57 | 284 | 5.2 | 8.7 | 0.00 | 0.00 | 0.00 | 40 | 1011.3 |
| 20260503211503 | 58 | 260 | 5.2 | 8.7 | 0.00 | 0.00 | 0.00 | 39 | 1011.2 |
| 20260503210004 | 59 | 253 | 5.2 | 10.4 | 0.00 | 0.00 | 0.00 | 37 | 1011.2 |
| 20260503205503 | 60 | 291 | 5.2 | 12.2 | 0.00 | 0.00 | 0.00 | 38 | 1011.3 |
| 20260503205003 | 60 | 289 | 5.2 | 11.3 | 0.00 | 0.00 | 0.00 | 37 | 1011.3 |
| 20260503204504 | 59 | 256 | 4.3 | 8.7 | 0.00 | 0.00 | 0.00 | 39 | 1011.3 |
| 20260503204004 | 58 | 312 | 2.6 | 11.3 | 0.00 | 0.00 | 0.00 | 40 | 1011.3 |
| 20260503203504 | 59 | 296 | 4.3 | 10.4 | 0.00 | 0.00 | 0.00 | 38 | 1011.4 |
| 20260503202504 | 59 | 252 | 2.6 | 13.0 | 0.00 | 0.00 | 0.00 | 38 | 1011.4 |
| 20260503202004 | 59 | 275 | 4.3 | 10.4 | 0.00 | 0.00 | 0.00 | 39 | 1011.4 |
| 20260503201503 | 59 | 238 | 4.3 | 10.4 | 0.00 | 0.00 | 0.00 | 39 | 1011.5 |
| 20260503201004 | 58 | 286 | 2.6 | 11.3 | 0.00 | 0.00 | 0.00 | 43 | 1011.6 |
| 20260503200503 | 57 | 261 | 4.3 | 7.8 | 0.00 | 0.00 | 0.00 | 42 | 1011.7 |
| 20260503195504 | 56 | 146 | 2.6 | 7.8 | 0.00 | 0.00 | 0.00 | 46 | 1011.8 |
| 20260503195004 | 56 | 183 | 4.3 | 10.4 | 0.00 | 0.00 | 0.00 | 44 | 1011.9 |
| 20260503194503 | 56 | 240 | 2.6 | 7.0 | 0.00 | 0.00 | 0.00 | 43 | 1012.0 |
| 20260503194004 | 56 | 181 | 3.5 | 10.4 | 0.00 | 0.00 | 0.00 | 43 | 1012.0 |
| 20260503193504 | 57 | 174 | 5.2 | 12.2 | 0.00 | 0.00 | 0.00 | 42 | 1012.0 |
| 20260503192504 | 57 | 168 | 4.3 | 12.2 | 0.00 | 0.00 | 0.00 | 43 | 1012.4 |
| 20260503192005 | 57 | 223 | 5.2 | 11.3 | 0.00 | 0.00 | 0.00 | 44 | 1012.3 |
| 20260503191004 | 56 | 281 | 3.5 | 10.4 | 0.00 | 0.00 | 0.00 | 44 | 1012.6 |
| 20260503190505 | 56 | 232 | 2.6 | 8.7 | 0.00 | 0.00 | 0.00 | 43 | 1012.6 |
| 20260503190004 | 57 | 283 | 1.7 | 11.3 | 0.00 | 0.00 | 0.00 | 45 | 1012.6 |
| 20260503185504 | 57 | 291 | 5.2 | 12.2 | 0.00 | 0.00 | 0.00 | 41 | 1012.6 |
| 20260503185003 | 57 | 288 | 3.5 | 8.7 | 0.00 | 0.00 | 0.00 | 44 | 1012.7 |
| 20260503184503 | 56 | 256 | 4.3 | 11.3 | 0.00 | 0.00 | 0.00 | 44 | 1012.8 |
| 20260503184004 | 56 | 292 | 5.2 | 11.3 | 0.00 | 0.00 | 0.00 | 44 | 1012.9 |
| 20260503183004 | 55 | 129 | 3.5 | 7.0 | 0.00 | 0.00 | 0.00 | 45 | 1012.9 |
| 20260503182503 | 55 | 193 | 4.3 | 11.3 | 0.00 | 0.00 | 0.00 | 45 | 1012.9 |
| 20260503182005 | 55 | 279 | 5.2 | 17.4 | 0.00 | 0.00 | 0.00 | 45 | 1013.1 |
| 20260503181505 | 55 | 210 | 2.6 | 7.8 | 0.00 | 0.00 | 0.00 | 47 | 1013.1 |
| 20260503181004 | 55 | 260 | 5.2 | 10.4 | 0.00 | 0.00 | 0.00 | 44 | 1013.1 |
| 20260503180503 | 55 | 193 | 4.3 | 8.7 | 0.00 | 0.00 | 0.00 | 44 | 1013.2 |
| 20260503180004 | 56 | 285 | 5.2 | 12.2 | 0.00 | 0.00 | 0.00 | 43 | 1013.2 |
| 20260503175504 | 56 | 253 | 5.2 | 12.2 | 0.00 | 0.00 | 0.00 | 45 | 1013.2 |
| 20260503175004 | 56 | 167 | 4.3 | 10.4 | 0.00 | 0.00 | 0.00 | 45 | 1013.2 |
| 20260503174504 | 56 | 263 | 4.3 | 7.0 | 0.00 | 0.00 | 0.00 | 47 | 1013.2 |
| 20260503174005 | 56 | 213 | 6.1 | 13.9 | 0.00 | 0.00 | 0.00 | 46 | 1013.2 |
| 20260503173504 | 56 | 240 | 4.3 | 13.0 | 0.00 | 0.00 | 0.00 | 47 | 1013.3 |
| 20260503172504 | 55 | 140 | 5.2 | 10.4 | 0.00 | 0.00 | 0.00 | 45 | 1013.3 |
| 20260503172004 | 55 | 164 | 5.2 | 12.2 | 0.00 | 0.00 | 0.00 | 45 | 1013.4 |
| 20260503171505 | 55 | 195 | 4.3 | 10.4 | 0.00 | 0.00 | 0.00 | 46 | 1013.5 |
| 20260503170504 | 53 | 234 | 3.5 | 10.4 | 0.00 | 0.00 | 0.00 | 47 | 1013.6 |
| 20260503151002 | 50 | 310 | 4.3 | 10.4 | 0.00 | 0.00 | 0.00 | 50 | 1014.8 |
| 20260503150502 | 50 | 296 | 4.3 | 8.7 | 0.00 | 0.00 | 0.00 | 50 | 1014.8 |
| 20260503131003 | 43 | 222 | 5.2 | 10.4 | 0.00 | 0.00 | 0.00 | 73 | 1015.2 |
| 20260503110503 | 31 | 159 | 1.7 | 2.6 | 0.00 | 0.00 | 0.00 | 91 | 1014.9 |
| 20260503090504 | 30 | 172 | 1.7 | 2.6 | 0.00 | 0.00 | 0.00 | 93 | 1014.8 |
| 20260503081503 | 29 | 167 | 1.7 | 2.6 | 0.00 | 0.00 | 0.00 | 92 | 1014.8 |
| 20260503080503 | 29 | 187 | 0.0 | 1.7 | 0.00 | 0.00 | 0.00 | 92 | 1014.9 |
| 20260503072504 | 30 | 188 | 0.0 | 0.0 | 0.00 | 0.00 | 0.00 | 91 | 1014.9 |
| 20260503072003 | 30 | 188 | 0.0 | 0.0 | 0.00 | 0.00 | 0.00 | 91 | 1014.9 |
| 20260503071503 | 30 | 188 | 0.0 | 1.7 | 0.00 | 0.00 | 0.00 | 91 | 1014.8 |
| 20260503071004 | 30 | 187 | 0.9 | 1.7 | 0.00 | 0.00 | 0.00 | 91 | 1014.8 |
| 20260503070503 | 30 | 187 | 0.9 | 2.6 | 0.00 | 0.00 | 0.00 | 91 | 1014.8 |
| 20260503054503 | 31 | 183 | 0.9 | 1.7 | 0.00 | 0.00 | 0.00 | 90 | 1015.1 |
| 20260503054004 | 31 | 184 | 0.9 | 1.7 | 0.00 | 0.00 | 0.00 | 90 | 1015.1 |
| 20260503053503 | 31 | 188 | 0.9 | 2.6 | 0.00 | 0.00 | 0.00 | 90 | 1015.1 |
| 20260503053003 | 31 | 198 | 0.9 | 2.6 | 0.00 | 0.00 | 0.00 | 90 | 1015.1 |
| 20260503052504 | 31 | 203 | 0.9 | 2.6 | 0.00 | 0.00 | 0.00 | 89 | 1015.1 |
| 20260503052003 | 31 | 205 | 1.7 | 2.6 | 0.00 | 0.00 | 0.00 | 89 | 1015.2 |
| 20260503051503 | 31 | 205 | 0.9 | 1.7 | 0.00 | 0.00 | 0.00 | 88 | 1015.2 |
| 20260503051003 | 31 | 205 | 1.7 | 1.7 | 0.00 | 0.00 | 0.00 | 88 | 1015.3 |
| 20260503050503 | 31 | 205 | 0.9 | 2.6 | 0.00 | 0.00 | 0.00 | 87 | 1015.3 |
| 20260503050003 | 32 | 205 | 0.9 | 1.7 | 0.00 | 0.00 | 0.00 | 87 | 1015.4 |
| 20260503045505 | 32 | 205 | 0.9 | 1.7 | 0.00 | 0.00 | 0.00 | 86 | 1015.4 |
| 20260503045003 | 32 | 205 | 0.9 | 1.7 | 0.00 | 0.00 | 0.00 | 86 | 1015.5 |
| 20260503044503 | 32 | 205 | 0.9 | 1.7 | 0.00 | 0.00 | 0.00 | 85 | 1015.4 |
| 20260503044005 | 33 | 205 | 0.9 | 1.7 | 0.00 | 0.00 | 0.00 | 85 | 1015.4 |
| 20260503043503 | 33 | 205 | 0.9 | 1.7 | 0.00 | 0.00 | 0.00 | 84 | 1015.5 |
| 20260503043003 | 34 | 205 | 0.9 | 2.6 | 0.00 | 0.00 | 0.00 | 84 | 1015.5 |
| 20260503042503 | 34 | 205 | 0.9 | 1.7 | 0.00 | 0.00 | 0.00 | 83 | 1015.5 |
| 20260503042003 | 34 | 205 | 0.9 | 1.7 | 0.00 | 0.00 | 0.00 | 83 | 1015.5 |
| 20260503041503 | 35 | 205 | 0.9 | 1.7 | 0.00 | 0.00 | 0.00 | 82 | 1015.5 |
| 20260503041004 | 35 | 206 | 0.9 | 1.7 | 0.00 | 0.00 | 0.00 | 82 | 1015.6 |
| 20260503040503 | 35 | 207 | 0.9 | 1.7 | 0.00 | 0.00 | 0.00 | 82 | 1015.6 |
| 20260503040003 | 35 | 207 | 0.9 | 2.6 | 0.00 | 0.00 | 0.00 | 82 | 1015.6 |
| 20260503035503 | 35 | 229 | 0.9 | 2.6 | 0.00 | 0.00 | 0.00 | 82 | 1015.6 |
| 20260503034504 | 35 | 255 | 0.9 | 1.7 | 0.00 | 0.00 | 0.00 | 81 | 1015.6 |
| 20260503034003 | 35 | 255 | 0.0 | 0.0 | 0.00 | 0.00 | 0.00 | 81 | 1015.6 |
| 20260503033504 | 35 | 255 | 0.0 | 2.6 | 0.00 | 0.00 | 0.00 | 81 | 1015.6 |
| 20260503033003 | 35 | 259 | 0.9 | 1.7 | 0.00 | 0.00 | 0.00 | 81 | 1015.6 |
| 20260503032503 | 35 | 259 | 0.9 | 1.7 | 0.00 | 0.00 | 0.00 | 81 | 1015.6 |
| 20260503032003 | 36 | 260 | 0.0 | 1.7 | 0.00 | 0.00 | 0.00 | 80 | 1015.7 |
| 20260503031503 | 36 | 262 | 0.0 | 0.9 | 0.00 | 0.00 | 0.00 | 80 | 1015.7 |
| 20260503031003 | 36 | 262 | 0.0 | 0.0 | 0.00 | 0.00 | 0.00 | 79 | 1015.7 |
| 20260503030003 | 36 | 262 | 0.0 | 0.0 | 0.00 | 0.00 | 0.00 | 79 | 1015.8 |
| 20260503025503 | 36 | 262 | 0.0 | 0.0 | 0.00 | 0.00 | 0.00 | 78 | 1015.8 |
| 20260503025003 | 36 | 262 | 0.0 | 0.0 | 0.00 | 0.00 | 0.00 | 78 | 1015.8 |
| 20260503024003 | 36 | 262 | 0.0 | 0.0 | 0.00 | 0.00 | 0.00 | 77 | 1015.9 |
| 20260503023503 | 36 | 262 | 0.0 | 0.9 | 0.00 | 0.00 | 0.00 | 77 | 1015.9 |
| 20260503022503 | 37 | 262 | 0.0 | 0.0 | 0.00 | 0.00 | 0.00 | 76 | 1016.0 |
| 20260503022003 | 37 | 262 | 0.0 | 0.0 | 0.00 | 0.00 | 0.00 | 75 | 1016.0 |
| 20260503021505 | 37 | 262 | 0.0 | 0.0 | 0.00 | 0.00 | 0.00 | 75 | 1016.0 |
| 20260503020503 | 37 | 264 | 0.0 | 1.7 | 0.00 | 0.00 | 0.00 | 74 | 1016.1 |
| 20260503020003 | 37 | 264 | 0.9 | 1.7 | 0.00 | 0.00 | 0.00 | 74 | 1016.1 |
| 20260503015505 | 37 | 264 | 1.7 | 2.6 | 0.00 | 0.00 | 0.00 | 74 | 1016.0 |
| 20260503015003 | 37 | 282 | 1.7 | 2.6 | 0.00 | 0.00 | 0.00 | 74 | 1016.0 |
| 20260503014503 | 37 | 271 | 0.0 | 2.6 | 0.00 | 0.00 | 0.00 | 74 | 1015.9 |
| 20260503013505 | 37 | 270 | 0.9 | 1.7 | 0.00 | 0.00 | 0.00 | 73 | 1016.0 |
| 20260503013003 | 37 | 279 | 1.7 | 2.6 | 0.00 | 0.00 | 0.00 | 73 | 1015.9 |
| 20260503012503 | 37 | 269 | 1.7 | 2.6 | 0.00 | 0.00 | 0.00 | 73 | 1016.0 |
| 20260503012004 | 37 | 283 | 0.9 | 4.3 | 0.00 | 0.00 | 0.00 | 73 | 1015.9 |
| 20260503011504 | 37 | 255 | 0.9 | 2.6 | 0.00 | 0.00 | 0.00 | 72 | 1015.9 |
| 20260503010504 | 37 | 307 | 2.6 | 4.3 | 0.00 | 0.00 | 0.00 | 72 | 1015.9 |
| 20260503005503 | 37 | 266 | 1.7 | 5.2 | 0.00 | 0.00 | 0.00 | 71 | 1015.8 |
| 20260503005003 | 37 | 281 | 1.7 | 5.2 | 0.00 | 0.00 | 0.00 | 71 | 1015.8 |
| 20260503004504 | 37 | 276 | 2.6 | 5.2 | 0.00 | 0.00 | 0.00 | 71 | 1015.8 |
| 20260503004003 | 37 | 297 | 1.7 | 4.3 | 0.00 | 0.00 | 0.00 | 71 | 1015.7 |
| 20260503003503 | 37 | 313 | 1.7 | 4.3 | 0.00 | 0.00 | 0.00 | 71 | 1015.6 |
| 20260503003004 | 37 | 290 | 2.6 | 5.2 | 0.00 | 0.00 | 0.00 | 71 | 1015.6 |
| 20260503002004 | 38 | 268 | 1.7 | 7.0 | 0.00 | 0.00 | 0.00 | 70 | 1015.6 |